This is the latest recevied weather packets stored in our database for station/object IK1PCD-11. If no packets are shown the sender has not sent any weather packets the latest 10 day(s).
| Time | Temp. | Humidity | Pressure | Rain* | Wind** | Luminosity | Snow |
|---|---|---|---|---|---|---|---|
| 1777609103 | 0.56° C | 79% | 1022.2 hPa | - | - | - | - |
| 1777608203 | 0.56° C | 78% | 1022.1 hPa | - | - | - | - |
| 1777607302 | 0.56° C | 77% | 1022 hPa | - | - | - | - |
| 1777606404 | 1.11° C | 75% | 1022.1 hPa | - | - | - | - |
| 1777605502 | 1.11° C | 71% | 1022.1 hPa | - | - | - | - |
| 1777602802 | 1.67° C | 66% | 1022.3 hPa | - | - | - | - |
| 1777601902 | 2.22° C | 66% | 1022.3 hPa | - | - | - | - |
| 1777601002 | 2.22° C | 66% | 1022.3 hPa | - | - | - | - |
| 1777600102 | 2.78° C | 63% | 1022.3 hPa | - | - | - | - |
| 1777599202 | 2.78° C | 65% | 1022.2 hPa | - | - | - | - |
| 1777598301 | 2.78° C | 64% | 1022.3 hPa | - | - | - | - |
| 1777597401 | 2.22° C | 64% | 1022.4 hPa | - | - | - | - |
| 1777596501 | 2.22° C | 64% | 1022.5 hPa | - | - | - | - |
| 1777595601 | 2.22° C | 59% | 1022.6 hPa | - | - | - | - |
| 1777594723 | 2.22° C | 53% | 1022.4 hPa | - | - | - | - |
| 1777593822 | 1.67° C | 61% | 1022.3 hPa | - | - | - | - |
| 1777592922 | 2.22° C | 56% | 1022.3 hPa | - | - | - | - |
| 1777592022 | 1.67° C | 55% | 1022.3 hPa | - | - | - | - |
| 1777591122 | 2.22° C | 55% | 1022.2 hPa | - | - | - | - |
| 1777590222 | 1.67° C | 53% | 1022.3 hPa | - | - | - | - |
| 1777587522 | 1.67° C | 60% | 1022.3 hPa | - | - | - | - |
| 1777586621 | 1.67° C | 57% | 1022.2 hPa | - | - | - | - |
| 1777585722 | 1.67° C | 62% | 1022.2 hPa | - | - | - | - |
| 1777584821 | 1.67° C | 63% | 1022.1 hPa | - | - | - | - |
| 1777583921 | 1.67° C | 65% | 1022 hPa | - | - | - | - |
* Rain since midnight (hover to see other rain measurements)
** Current wind speed in m/s (hover to see current wind gust speed)